Content
SEND FEEDBACK

Daily
Averages
Monthly
Summary
United States of America

MYRTLE GROVE, NORTH CAROLINA


Home > North America > United States > North Carolina
Elevation: 30 feet     Latitude: 34 09N     Longitude: 077 53W

WEATHER
 
SELECT A DAY
Number of Records: 214,086;   Date Range: 1/1/95 - 12/18/14
 
SHARE

PRINT THIS DATA

[ ← Previous Day ]
WEATHER ALMANAC - AUGUST 8, 2014
[ Next Day → ]
[ °C ]   °F
Weather ElementAverageHighLow
Temperature79 °F84.9 °F (12:21 pm)72 °F (2:53 am)
Dewpoint71 °F73 °F (8:53 am)66.9 °F (4:53 pm)
Humidity77.5 %93 % (12:53 am)55 % (4:53 pm)
Barometer30.05 in30.08 in (10:53 am)29.99 in (12:53 am)
Wind Speed8.2 mph12.7 mph (4:53 pm)
Wind Gust16.1 mph (12:53 pm)
Weather ElementAverage
Visibility8.5 mi
Wind DirectionENE (59.2 °)

Weather ElementTotal
Precipitation---
Cooling Degree Days13.5 (Base 65)
Growing Degree Days28.5 (Base 50)
Averaged from 25 records on August 8, 2014
WEATHER CONDITIONS BREAKOUT
WIND DIRECTION BREAKOUT
WEATHER BY HOUR - AUGUST 8, 2014
[ °C ]   °F
Local TimeTemperatureDewpointHumidityBarometerVisibilityWind DirectionWind SpeedGust SpeedPrecipitationEventsConditions
12:53 AM73.9 °F72.0 °F93 %30.00 in6.0 miNNE (30°)5.8 mphClear
1:53 AM73.9 °F72.0 °F93 %29.99 in6.0 miNNE (30°)6.9 mphClear
2:53 AM73.9 °F72.0 °F93 %30.00 in5.0 miNNE (30°)6.9 mphClear
3:53 AM73.9 °F72.0 °F93 %30.00 in5.0 miNE (40°)6.9 mphPartly Cloudy
4:53 AM73.0 °F71.1 °F93 %30.00 in5.0 miNE (40°)9.2 mphPartly Cloudy
5:53 AM72.0 °F70.0 °F93 %30.01 in6.0 miNE (40°)6.9 mphPartly Cloudy
6:53 AM72.0 °F70.0 °F93 %30.03 in4.0 miNNE (30°)9.2 mphClear
7:53 AM73.9 °F71.1 °F91 %30.04 in6.0 miNE (40°)6.9 mphClear
8:53 AM77.0 °F71.1 °F82 %30.07 in10.0 miNE (40°)10.4 mphClear
9:53 AM82.0 °F72.0 °F71 %30.07 in10.0 miNE (40°)10.4 mphClear
10:53 AM82.0 °F73.0 °F74 %30.08 in10.0 miNE (40°)9.2 mphMostly Cloudy
11:53 AM84.0 °F72.0 °F67 %30.08 in10.0 miEast (90°)10.4 mphMostly Cloudy
12:21 PM84.9 °F72.0 °F65 %30.08 in10.0 miVariable6.9 mphMostly Cloudy
12:53 PM84.9 °F71.1 °F63 %30.07 in10.0 miEast (100°)10.4 mph16.1 mphPartly Cloudy
1:53 PM84.0 °F68.0 °F58 %30.08 in10.0 miEast (100°)11.5 mphClear
2:53 PM84.9 °F69.1 °F59 %30.07 in10.0 miEast (90°)11.5 mphClear
3:53 PM84.0 °F68.0 °F58 %30.05 in10.0 miEast (80°)10.4 mphMostly Cloudy
4:53 PM84.9 °F66.9 °F55 %30.04 in10.0 miEast (80°)12.7 mphClear
5:53 PM84.0 °F70.0 °F63 %30.04 in10.0 miENE (70°)10.4 mphClear
6:53 PM81.0 °F71.1 °F72 %30.03 in10.0 miEast (80°)6.9 mphClear
7:53 PM79.0 °F72.0 °F79 %30.05 in10.0 miEast (80°)4.6 mphClear
8:53 PM78.1 °F72.0 °F81 %30.05 in10.0 miEast (80°)4.6 mphClear
9:53 PM77.0 °F73.0 °F88 %30.07 in10.0 miENE (60°)4.6 mphClear
10:53 PM79.0 °F72.0 °F79 %30.08 in10.0 miEast (90°)5.8 mphClear
11:53 PM78.1 °F72.0 °F81 %30.08 in10.0 miEast (80°)4.6 mphClear
Hourly data recorded from KILM, located miles away from Myrtle Grove, North Carolina







STORIES FROM OUR PARTNERS